Glasgow, MT

1:22 AM MDT on March 26, 2017 (GMT -0600)
Wokal-Glasgow International

Weather History for KGGW - January, 2013

Change the Weather History Date:

Wednesday, January 16, 2013

  Actual Average Record
Temperature  
Mean Temperature 37 °F 14 °F  
Max Temperature 40 °F 23 °F 53 °F (1944)
Min Temperature 33 °F 4 °F -40 °F (1950)
Degree Days  
Heating Degree Days 28 51  
Month to date heating degree days 791 831  
Since 1 July heating degree days 4321 4333  
Cooling Degree Days 0 0  
Month to date cooling degree days 0 0  
Year to date cooling degree days 0 0  
Moisture  
Dew Point 29 °F    
Average Humidity 80    
Maximum Humidity 89    
Minimum Humidity 70    
Precipitation  
Precipitation T in 0.01 in 0.20 in (1911)
Month to date precipitation 0.42 0.22  
Year to date precipitation 0.42 0.22  
Snow  
Snow T in 0.20 in 4.00 in (1996)
Month to date snowfall 9.5 4.8  
Since 1 July snowfall 32.1 19.4  
Snow Depth 3.00 in    
Sea Level Pressure  
Sea Level Pressure 30.08 in    
Wind  
Wind Speed 12 mph (WNW)    
Max Wind Speed 26 mph    
Max Gust Speed 35 mph    
Visibility 10 miles    
Events      
T = Trace of Precipitation, MM = Missing Value Source: NWS Daily Summary

Daily Weather History Graph

Daily Weather History Graph

Search for Another Location

Airport or City:

Trip Planner

Search our weather history database for the weather conditions in past years. The results will help you decide how hot, cold, wet, or windy it might be!

Date:

Astronomy

Jan. 16, 2013 Rise Set
Actual Time 7:51 AM MST 4:41 PM MST
Civil Twilight 7:16 AM MST 5:17 PM MST
Nautical Twilight 6:37 AM MST 5:55 PM MST
Astronomical Twilight 6:00 AM MST 6:33 PM MST
Moon 9:59 AM MST (1/16) 11:08 PM MST (1/16)
Length of Visible Light 10h 01m
Length of Day
8h 50m
Waxing Crescent, 29% of the Moon is Illuminated
Jan 16
Waxing Crescent
Jan 18
First Quarter
Jan 26
Full
Feb 3
Last Quarter
Feb 10
New

Hourly Weather History & Observations

Time (MST) Temp. Windchill Dew Point Humidity Pressure Visibility Wind Dir Wind Speed Gust Speed Precip Events Conditions
12:53 AM 37.4 °F 27.5 °F 28.4 °F 70% 29.80 in 10.0 mi West 18.4 mph 25.3 mph N/A   Overcast
1:53 AM 37.0 °F 27.0 °F 28.0 °F 70% 29.88 in 10.0 mi West 18.4 mph 26.5 mph N/A   Overcast
2:53 AM 37.0 °F 27.7 °F 28.0 °F 70% 29.89 in 10.0 mi NW 16.1 mph - N/A   Overcast
3:53 AM 37.0 °F 27.7 °F 28.0 °F 70% 29.90 in 10.0 mi WNW 16.1 mph - N/A   Overcast
4:53 AM 37.0 °F 29.3 °F 28.0 °F 70% 29.90 in 10.0 mi WNW 11.5 mph - N/A   Overcast
5:53 AM 36.0 °F 26.7 °F 28.9 °F 76% 29.93 in 10.0 mi WNW 15.0 mph - N/A   Overcast
6:53 AM 36.0 °F 27.1 °F 28.9 °F 76% 29.96 in 10.0 mi WNW 13.8 mph - N/A   Overcast
7:53 AM 37.0 °F 28.1 °F 28.9 °F 73% 29.99 in 10.0 mi WNW 15.0 mph 20.7 mph N/A   Overcast
8:53 AM 37.9 °F 27.1 °F 30.9 °F 76% 30.02 in 10.0 mi NW 23.0 mph 34.5 mph N/A   Overcast
9:53 AM 37.0 °F 29.8 °F 30.0 °F 76% 30.06 in 10.0 mi WNW 10.4 mph - N/A   Overcast
10:53 AM 37.9 °F 29.2 °F 28.9 °F 70% 30.09 in 10.0 mi West 15.0 mph - N/A   Mostly Cloudy
11:53 AM 37.4 °F 30.8 °F 30.2 °F 75% 30.02 in 10.0 mi West 9.2 mph - N/A   Partly Cloudy
12:53 PM 37.4 °F 29.3 °F 30.2 °F 75% 30.02 in 10.0 mi WNW 12.7 mph - N/A   Partly Cloudy
1:53 PM 39.0 °F 30.6 °F 30.0 °F 70% 30.10 in 10.0 mi WNW 15.0 mph - N/A   Scattered Clouds
2:53 PM 37.0 °F 29.3 °F 30.0 °F 76% 30.13 in 10.0 mi West 11.5 mph - N/A   Clear
3:53 PM 36.0 °F 27.1 °F 28.9 °F 76% 30.15 in 10.0 mi WNW 13.8 mph - N/A   Scattered Clouds
4:53 PM 35.1 °F 27.9 °F 28.9 °F 78% 30.18 in 10.0 mi NW 9.2 mph - N/A   Partly Cloudy
5:53 PM 33.1 °F 27.7 °F 28.9 °F 85% 30.20 in 10.0 mi North 5.8 mph - N/A   Overcast
6:53 PM 33.1 °F - 28.9 °F 85% 30.22 in 10.0 mi Calm Calm - N/A   Overcast
7:53 PM 34.0 °F 27.2 °F 30.0 °F 85% 30.25 in 10.0 mi West 8.1 mph - N/A   Overcast
8:53 PM 36.0 °F 28.0 °F 28.9 °F 76% 30.25 in 10.0 mi WNW 11.5 mph - N/A   Overcast
9:53 PM 35.1 °F 26.9 °F 28.9 °F 78% 30.26 in 10.0 mi WNW 11.5 mph - N/A   Overcast
10:53 PM 35.1 °F 26.9 °F 30.0 °F 82% 30.28 in 10.0 mi WNW 11.5 mph - N/A   Overcast
11:53 PM 34.0 °F 28.8 °F 30.0 °F 85% 30.30 in 10.0 mi West 5.8 mph - N/A   Overcast